Avalon, Australia

3:38 AM AEDT on October 23, 2017 (GMT +1100)
Avalon

Weather History for YMAV - July, 2013

Change the Weather History Date:

Tuesday, July 23, 2013

  Actual Average Record
Temperature  
Mean Temperature 50 °F -  
Max Temperature 55 °F - - ()
Min Temperature 46 °F - - ()
Degree Days  
Heating Degree Days 14    
Moisture  
Dew Point 46 °F    
Average Humidity 83    
Maximum Humidity 100    
Minimum Humidity 58    
Precipitation  
Precipitation 0.01 in - - ()
Sea Level Pressure  
Sea Level Pressure 30.25 in    
Wind  
Wind Speed 12 mph ()    
Max Wind Speed 18 mph    
Max Gust Speed -    
Visibility 6.0 miles    
Events Rain    
T = Trace of Precipitation, MM = Missing Value Source: Averaged Metar Reports

Daily Weather History Graph

Daily Weather History Graph

Search for Another Location

Airport or City:

Trip Planner

Search our weather history database for the weather conditions in past years. The results will help you decide how hot, cold, wet, or windy it might be!

Date:

Astronomy

Jul. 23, 2013 Rise Set
Actual Time 7:30 AM AEST 5:27 PM AEST
Civil Twilight 7:01 AM AEST 5:55 PM AEST
Nautical Twilight 6:29 AM AEST 6:27 PM AEST
Astronomical Twilight 5:58 AM AEST 6:59 PM AEST
Moon 6:15 PM AEST (7/23) 7:18 AM AEST (7/23)
Length of Visible Light 10h 53m
Length of Day
9h 56m
Full, 100% of the Moon is Illuminated
Jul 23
Full
Jul 30
Last Quarter
Aug 7
New
Aug 14
First Quarter
Aug 21
Full

Hourly Weather History & Observations

Time (AEST) Temp. Windchill Dew Point Humidity Pressure Visibility Wind Dir Wind Speed Gust Speed Precip Events Conditions
12:00 AM 47 °F - 44 °F 84% 30.10 in - WNW 13.8 mph - -  
12:00 AM 46.4 °F 40.4 °F 44.6 °F 93% 30.09 in 6.2 mi WNW 13.8 mph - N/A   Mostly Cloudy
12:30 AM 48.2 °F - 44.6 °F 87% 30.09 in 6.2 mi WNW 15.0 mph - N/A   Overcast
1:00 AM 48.2 °F - 44.6 °F 87% 30.09 in 6.2 mi West 13.8 mph - N/A Rain Light Rain Showers
1:29 AM 48.2 °F - 46.4 °F 93% 30.09 in 3.7 mi West 16.1 mph - N/A Rain Light Rain Showers
1:30 AM 48.2 °F - 46.4 °F 93% 30.09 in 3.7 mi West 16.1 mph - N/A Rain Light Rain Showers
1:55 AM 48.2 °F - 46.4 °F 93% 30.09 in 6.2 mi WNW 13.8 mph - N/A Rain Light Rain Showers
2:00 AM 48.2 °F - 46.4 °F 93% 30.09 in 6.2 mi WNW 13.8 mph - N/A Rain Light Rain Showers
2:13 AM 48.2 °F - 46.4 °F 93% 30.12 in 3.7 mi West 16.1 mph - N/A Rain Light Rain Showers
2:30 AM 48.2 °F - 46.4 °F 93% 30.12 in 3.1 mi West 15.0 mph - N/A Rain Light Rain Showers
3:00 AM 47 °F - 46 °F 97% 30.13 in - West 11.5 mph - -   Overcast
3:00 AM 48.2 °F - 46.4 °F 93% 30.12 in 6.2 mi West 11.5 mph - N/A   Overcast
3:30 AM 46.4 °F 40.7 °F 46.4 °F 100% 30.12 in 6.2 mi West 12.7 mph - N/A   Scattered Clouds
4:00 AM 48.2 °F - 46.4 °F 93% 30.12 in 6.2 mi West 12.7 mph - N/A   Mostly Cloudy
4:30 AM 48.2 °F - 46.4 °F 93% 30.12 in 6.2 mi West 11.5 mph - N/A Rain Light Rain Showers
5:00 AM 48.2 °F - 46.4 °F 93% 30.15 in 6.2 mi West 9.2 mph - N/A   Mostly Cloudy
5:30 AM 48.2 °F - 46.4 °F 93% 30.15 in 6.2 mi West 11.5 mph - N/A   Overcast
6:00 AM 47 °F - 46 °F 97% 30.18 in - West 10.4 mph - -  
6:00 AM 48.2 °F - 46.4 °F 93% 30.18 in 6.2 mi West 10.4 mph - N/A   Overcast
6:30 AM 48.2 °F - 46.4 °F 93% 30.18 in 6.2 mi West 15.0 mph - N/A   Overcast
7:00 AM 48.2 °F - 46.4 °F 93% 30.18 in 6.2 mi West 11.5 mph - N/A   Mostly Cloudy
7:30 AM 48.2 °F - 46.4 °F 93% 30.21 in 6.2 mi West 10.4 mph - N/A Rain Light Rain Showers
8:00 AM 48.2 °F - 46.4 °F 93% 30.21 in 6.2 mi West 10.4 mph - N/A   Overcast
8:30 AM 48.2 °F - 46.4 °F 93% 30.24 in 6.2 mi West 10.4 mph - N/A Rain Light Rain Showers
8:57 AM 48.2 °F - 46.4 °F 93% 30.24 in 6.2 mi WSW 8.1 mph - N/A   Overcast
9:00 AM 49 °F - 47 °F 91% 30.26 in - WSW 8.1 mph - -   Overcast
9:00 AM 50.0 °F - 46.4 °F 87% 30.24 in 6.2 mi WSW 8.1 mph - N/A   Overcast
9:30 AM 50.0 °F - 48.2 °F 94% 30.27 in 6.2 mi West 12.7 mph - N/A   Mostly Cloudy
10:00 AM 50.0 °F - 46.4 °F 87% 30.27 in 6.2 mi West 13.8 mph - N/A   Overcast
10:14 AM 50.0 °F - 46.4 °F 87% 30.27 in 3.7 mi West 16.1 mph - N/A   Drizzle
10:30 AM 51.8 °F - 48.2 °F 88% 30.27 in 6.2 mi West 11.5 mph - N/A Rain Light Rain Showers
11:00 AM 51.8 °F - 48.2 °F 88% 30.27 in 6.2 mi West 12.7 mph - N/A   Overcast
11:30 AM 53.6 °F - 48.2 °F 82% 30.30 in 6.2 mi West 13.8 mph - N/A   Overcast
12:00 PM 53 °F - 48 °F 77% 30.30 in - West 12.7 mph - -   Overcast
12:00 PM 53.6 °F - 48.2 °F 82% 30.30 in 6.2 mi West 12.7 mph - N/A   Overcast
12:30 PM 55.4 °F - 48.2 °F 77% 30.30 in 6.2 mi SW 12.7 mph - N/A   Overcast
1:00 PM 53.6 °F - 46.4 °F 77% 30.30 in 6.2 mi SW 17.3 mph - N/A   Light Drizzle
1:30 PM 55.4 °F - 48.2 °F 77% 30.27 in 6.2 mi SW 13.8 mph - N/A   Overcast
2:00 PM 55.4 °F - 44.6 °F 67% 30.27 in 6.2 mi SSW 18.4 mph - N/A   Mostly Cloudy
2:30 PM 55.4 °F - 44.6 °F 67% 30.30 in 6.2 mi SW 18.4 mph - N/A   Overcast
3:00 PM 54 °F - 44 °F 60% 30.31 in - SSW 18.4 mph - -   Overcast
3:00 PM 53.6 °F - 44.6 °F 72% 30.30 in 6.2 mi SSW 18.4 mph - N/A   Overcast
3:30 PM 53.6 °F - 42.8 °F 67% 30.30 in 6.2 mi SSW 18.4 mph - N/A   Overcast
4:00 PM 53.6 °F - 44.6 °F 72% 30.30 in 6.2 mi SW 16.1 mph - N/A   Overcast
4:30 PM 53.6 °F - 44.6 °F 72% 30.33 in 6.2 mi SW 13.8 mph - N/A   Overcast
5:00 PM 53.6 °F - 44.6 °F 72% 30.33 in 6.2 mi SW 10.4 mph - N/A   Overcast
5:30 PM 53.6 °F - 42.8 °F 67% 30.33 in 6.2 mi SW 11.5 mph - N/A   Overcast
6:00 PM 53 °F - 43 °F 58% 30.36 in - WSW 12.7 mph - -  
6:00 PM 53.6 °F - 42.8 °F 67% 30.36 in 6.2 mi WSW 12.7 mph - N/A   Overcast
6:30 PM 51.8 °F - 42.8 °F 71% 30.36 in 6.2 mi WSW 10.4 mph - N/A   Overcast
7:00 PM 51.8 °F - 42.8 °F 71% 30.36 in 6.2 mi West 9.2 mph - N/A   Overcast
7:30 PM 51.8 °F - 44.6 °F 76% 30.39 in 6.2 mi West 6.9 mph - N/A   Overcast
8:00 PM 51.8 °F - 44.6 °F 76% 30.39 in 6.2 mi West 8.1 mph - N/A   Overcast
8:30 PM 51.8 °F - 44.6 °F 76% 30.39 in 6.2 mi West 6.9 mph - N/A   Overcast
9:00 PM 51 °F - 45 °F 72% 30.42 in - West 8.1 mph - -   Overcast
9:00 PM 51.8 °F - 44.6 °F 76% 30.42 in 6.2 mi West 8.1 mph - N/A   Overcast
9:30 PM 50.0 °F - 44.6 °F 82% 30.42 in 6.2 mi West 8.1 mph - N/A   Overcast
10:00 PM 50.0 °F - 44.6 °F 82% 30.42 in 6.2 mi West 9.2 mph - N/A   Overcast
10:30 PM 50.0 °F - 44.6 °F 82% 30.42 in 6.2 mi West 8.1 mph - N/A   Overcast
11:00 PM 50.0 °F - 44.6 °F 82% 30.42 in 6.2 mi West 9.2 mph - N/A   Overcast
11:30 PM 50.0 °F - 44.6 °F 82% 30.45 in 6.2 mi West 6.9 mph - N/A   Overcast